PROFILE

 METAR AND TAF INFORMATION
ADDS - METARS form results

(2158 UTC 10 December 2018)
http://aviationweather.gov/metar/data/
 
LIEE 102150Z 35009KT 9999 FEW045 10/07 Q1021
LIEE 102120Z 35008KT CAVOK 10/07 Q1022
TAF LIEE 101700Z 1018/1118 33018KT 9999 SCT030 

 AIRPORT MAP

 RUNWAY INFORMATION
Runway 14 Runway length 9196 ft Runway width 148 ft
Runway elevation 9 ft Runway displaced threshold 0 ft Runway heading 138
Runway 32 Runway length 9196 ft Runway width 148 ft
Runway elevation 4 ft Runway displaced threshold 0 ft Runway heading 318

 AIRPORT FREQUENCIES
Type APP Name CAGLIARI A Frequency 118.75 MHZ
Type GND Name Elmas GND Frequency 125.425 MHZ
Type MISC Name SAR Frequency 123.1 MHZ
Type TWR Name TWR Frequency 120.6 MHZ

 AIRPORT NEAR NAVIGATION AIDS
Type VOR-DME Name Cagliari Frequency 113400 KHZ
Type NDB Name Cagliari Frequency 371 KHZ